ISS [Segment 01] 1 25544C 98067A 22180.63936705 -.00111457 00000+0 -19655-2 0 14 2 25544 51.6410 274.9226 0004371 313.7345 107.8190 15.49776070 15 ISS [Segment 02] 1 25544C 98067A 22180.88936705 .00085863 00000+0 15133-2 0 28 2 25544 51.6426 273.6854 0004546 314.9807 62.2700 15.49743678 14 ISS [Segment 03] 1 25544C 98067A 22181.13936705 .00028702 00000+0 50618-3 0 35 2 25544 51.6403 272.4444 0004347 313.4241 19.5413 15.49739389 16 ISS [Segment 04] 1 25544C 98067A 22181.38936705 -.00029212 00000+0 -51465-3 0 43 2 25544 51.6425 271.2069 0004307 312.1529 336.5055 15.49782868 15 ISS [Segment 05] 1 25544C 98067A 22181.63936705 -.00083995 00000+0 -14804-2 0 55 2 25544 51.6408 269.9708 0004399 317.6359 286.7405 15.49784023 12 ISS [Segment 06] 1 25544C 98067A 22181.88936705 .00091638 00000+0 16138-2 0 66 2 25544 51.6427 268.7337 0004631 317.8397 242.2466 15.49762689 19 ISS [Segment 07] 1 25544C 98067A 22182.13936705 .00012891 00000+0 22719-3 0 73 2 25544 51.6405 267.4920 0004439 316.8560 198.9594 15.49763888 17 ISS [Segment 08] 1 25544C 98067A 22182.38936705 -.00063277 00000+0 -11142-2 0 84 2 25544 51.6427 266.2550 0004377 316.9690 154.5589 15.49806511 16 ISS [Segment 09] 1 25544C 98067A 22182.63936705 -.00051792 00000+0 -91237-3 0 96 2 25544 51.6410 265.0186 0004480 321.4663 105.7983 15.49790978 11 ISS [Segment 10] 1 25544C 98067A 22182.88936705 .00053978 00000+0 94998-3 0 108 2 25544 51.6428 263.7814 0004704 322.4339 60.5535 15.49790368 17 ISS [Segment 11] 1 25544C 98067A 22183.13936705 .00101834 00000+0 17936-2 0 119 2 25544 51.6405 262.5393 0004384 322.0154 16.7220 15.49757969 10 ISS [Segment 12] 1 25544C 98067A 22183.38936705 -.00028368 00000+0 -49919-3 0 126 2 25544 51.6425 261.3029 0004412 322.3125 332.1503 15.49816093 11 ISS [Segment 13] 1 25544C 98067A 22183.64166667 -.00012166 00000+0 -21420-3 0 134 2 25544 51.6404 260.0551 0004559 326.7543 296.2988 15.49796237 12 ISS [Segment 14] 1 25544C 98067A 22183.89166667 .00034702 00000+0 61039-3 0 140 2 25544 51.6421 258.8176 0004715 326.5932 252.1948 15.49810795 16 ISS [Segment 15] 1 25544C 98067A 22184.14166667 .00067863 00000+0 11946-2 0 155 2 25544 51.6397 257.5755 0004383 325.6910 208.8564 15.49783419 18 ISS [Segment 16] 1 25544C 98067A 22184.39166667 -.00028084 00000+0 -49403-3 0 167 2 25544 51.6418 256.3396 0004450 326.4182 163.8719 15.49825359 17 ISS [Segment 17] 1 25544C 98067A 22184.64166667 .00022098 00000+0 38890-3 0 171 2 25544 51.6396 255.1027 0004603 329.6613 116.3922 15.49798940 18 ISS [Segment 18] 1 25544C 98067A 22184.89166667 .00015620 00000+0 27460-3 0 183 2 25544 51.6414 253.8653 0004758 330.0873 71.7106 15.49829936 12 ISS [Segment 19] 1 25544C 98067A 22185.14166667 .00139090 00000+0 24471-2 0 199 2 25544 51.6396 252.6229 0004350 329.2248 28.3482 15.49780519 19 ISS [Segment 20] 1 25544C 98067A 22185.39166667 .00015295 00000+0 26889-3 0 204 2 25544 51.6414 251.3871 0004449 330.5024 342.8246 15.49831190 19 ISS [Segment 21] 1 25544C 98067A 22185.64166667 .00041842 00000+0 73599-3 0 210 2 25544 51.6398 250.1500 0004662 333.3804 295.7216 15.49808801 16 ISS [Segment 22] 1 25544C 98067A 22185.89166667 -.00030687 00000+0 -53921-3 0 222 2 25544 51.6417 248.9124 0004786 332.6596 252.1983 15.49855292 16 ISS [Segment 23] 1 25544C 98067A 22186.14166667 .00084667 00000+0 14886-2 0 233 2 25544 51.6404 247.6698 0004398 332.7765 207.8654 15.49813203 10 ISS [Segment 24] 1 25544C 98067A 22186.39166667 .00019585 00000+0 34417-3 0 241 2 25544 51.6418 246.4343 0004549 334.5417 161.8729 15.49841395 16 ISS [Segment 25] 1 25544C 98067A 22186.64166667 .00053018 00000+0 93217-3 0 252 2 25544 51.6403 245.1969 0004722 337.3838 114.8156 15.49818227 11 ISS [Segment 26] 1 25544C 98067A 22186.89166667 -.00046421 00000+0 -81542-3 0 260 2 25544 51.6418 243.9591 0004880 337.2299 70.7378 15.49867855 16 ISS [Segment 27] 1 25544C 98067A 22187.14166667 .00137647 00000+0 24190-2 0 274 2 25544 51.6407 242.7169 0004405 338.0003 25.7615 15.49811565 18 ISS [Segment 28] 1 25544C 98067A 22187.39166667 .00044191 00000+0 77627-3 0 287 2 25544 51.6418 241.4816 0004617 339.7809 339.7623 15.49846628 17 ISS [Segment 29] 1 25544C 98067A 22187.64166667 .00057679 00000+0 10137-2 0 293 2 25544 51.6401 240.2442 0004812 341.7667 293.5680 15.49828816 12 ISS [Segment 30] 1 25544C 98067A 22187.89166667 -.00091430 00000+0 -16057-2 0 304 2 25544 51.6412 239.0061 0004838 341.1693 249.9430 15.49885436 17 ISS [Segment 31] 1 25544C 98067A 22188.14166667 .00094387 00000+0 16579-2 0 315 2 25544 51.6405 237.7642 0004380 341.5375 205.3720 15.49836429 18 ISS [Segment 32] 1 25544C 98067A 22188.39166667 .00039950 00000+0 70156-3 0 320 2 25544 51.6411 236.5292 0004612 343.5777 159.1250 15.49855593 16 ISS [Segment 33] 1 25544C 98067A 22188.64166667 .00057228 00000+0 10054-2 0 337 2 25544 51.6400 235.2914 0004821 345.0083 113.4924 15.49838523 15 ISS [Segment 34] 1 25544C 98067A 22188.89166667 -.00102291 00000+0 -17960-2 0 341 2 25544 51.6408 234.0533 0004880 344.2966 69.9919 15.49895308 16 ISS [Segment 35] 1 25544C 98067A 22189.14166667 .00101753 00000+0 17867-2 0 357 2 25544 51.6408 232.8116 0004390 344.9731 25.1211 15.49844402 10 ISS [Segment 36] 1 25544C 98067A 22189.39166667 .00030213 00000+0 53036-3 0 366 2 25544 51.6410 231.5763 0004667 347.0195 338.8763 15.49869154 19 ISS [Segment 37] 1 25544C 98067A 22189.64166667 .00049752 00000+0 87363-3 0 373 2 25544 51.6406 230.3386 0004855 348.1247 293.5772 15.49854080 10 ISS [Segment 38] 1 25544C 98067A 22189.89166667 -.00126932 00000+0 -22280-2 0 385 2 25544 51.6411 229.1000 0004877 347.4930 250.0102 15.49909445 11 ISS [Segment 39] 1 25544C 98067A 22190.14166667 .00079859 00000+0 14013-2 0 394 2 25544 51.6416 227.8586 0004430 348.5859 204.7300 15.49868433 14 ISS [Segment 40] 1 25544C 98067A 22190.39166667 -.00016291 00000+0 -28586-3 0 407 2 25544 51.6412 226.6234 0004729 351.7122 157.4192 15.49891886 18 ISS [Segment 41] 1 25544C 98067A 22190.64166667 .00073007 00000+0 12813-2 0 417 2 25544 51.6411 225.3855 0004924 352.0033 112.9464 15.49862713 19 ISS [Segment 42] 1 25544C 98067A 22190.89166667 -.00114896 00000+0 -20160-2 0 423 2 25544 51.6408 224.1465 0004945 351.7861 68.9778 15.49915107 11 ISS [Segment 43] 1 25544C 98067A 22191.14166667 .00047073 00000+0 82570-3 0 437 2 25544 51.6414 222.9058 0004511 353.2686 23.3149 15.49886886 11 ISS [Segment 44] 1 25544C 98067A 22191.39166667 -.00032306 00000+0 -56669-3 0 440 2 25544 51.6406 221.6705 0004826 355.5074 336.9023 15.49904330 11 ISS [Segment 45] 1 25544C 98067A 22191.64166667 .00052881 00000+0 92770-3 0 450 2 25544 51.6406 220.4327 0004992 356.1633 292.0717 15.49879233 15 ISS [Segment 46] 1 25544C 98067A 22191.89166667 -.00144223 00000+0 -25304-2 0 460 2 25544 51.6396 219.1933 0004896 356.1749 247.8860 15.49925553 16 ISS [Segment 47] 1 25544C 98067A 22192.14166667 .00055262 00000+0 96896-3 0 477 2 25544 51.6408 217.9533 0004483 356.8452 203.0415 15.49896505 16 ISS [Segment 48] 1 25544C 98067A 22192.39236111 -.00072356 00000+0 -12688-2 0 488 2 25544 51.6395 216.7143 0004808 359.6982 159.8991 15.49922757 11 ISS [Segment 49] 1 25544C 98067A 22192.64236111 .00084965 00000+0 14899-2 0 490 2 25544 51.6402 215.4764 0004972 358.9992 116.4332 15.49883571 18 ISS [Segment 50] 1 25544C 98067A 22192.89236111 -.00082198 00000+0 -14417-2 0 503 2 25544 51.6391 214.2366 0004866 359.0251 72.2451 15.49919759 11 ISS [Segment 51] 1 25544C 98067A 22193.14236111 -.00005996 00000+0 -10509-3 0 513 2 25544 51.6406 212.9968 0004524 0.1112 26.9899 15.49920878 18 ISS [Segment 52] 1 25544C 98067A 22193.39236111 -.00098469 00000+0 -17262-2 0 520 2 25544 51.6393 211.7609 0004849 2.6326 340.3134 15.49937213 12 ISS [Segment 53] 1 25544C 98067A 22193.64236111 .00077396 00000+0 13565-2 0 535 2 25544 51.6406 210.5232 0005007 2.1605 296.6289 15.49899425 14 ISS [Segment 54] 1 25544C 98067A 22193.89236111 -.00094063 00000+0 -16493-2 0 548 2 25544 51.6392 209.2826 0004893 2.9490 251.6915 15.49930205 13 ISS [Segment 55] 1 25544C 98067A 22194.14236111 .00018783 00000+0 32906-3 0 559 2 25544 51.6410 208.0434 0004582 4.0032 206.4791 15.49929019 17 ISS [Segment 56] 1 25544C 98067A 22194.39236111 -.00106409 00000+0 -18647-2 0 567 2 25544 51.6396 206.8073 0004940 7.0752 159.2628 15.49949595 10 ISS [Segment 57] 1 25544C 98067A 22194.64236111 .00089331 00000+0 15649-2 0 577 2 25544 51.6408 205.5695 0005068 5.9242 116.2674 15.49910202 10 ISS [Segment 58] 1 25544C 98067A 22194.89236111 -.00029905 00000+0 -52416-3 0 582 2 25544 51.6389 204.3285 0004895 7.1196 70.9353 15.49925021 14 ISS [Segment 59] 1 25544C 98067A 22195.14236111 -.00061117 00000+0 -10704-2 0 596 2 25544 51.6409 203.0901 0004693 8.1764 25.7249 15.49956814 12 ISS [Segment 60] 1 25544C 98067A 22195.39236111 -.00117310 00000+0 -20553-2 0 605 2 25544 51.6391 201.8538 0004983 10.4558 339.3130 15.49957722 15